Wind_Speed
32 30 29 28 28 28 29 30 30 30 31 32 33 33 32 32 33 35 38 42 47 53 57 60 62 64 65 65 65 65 66 69 71 74 75 69 59 52 46 42 44 50 52 52 52 48 44 43 46 49 49 48 47 45 43 40 41 45 47 44 41 40 40 39 37 35 35 36 37 34 31 30 29 27 26 25 25 24 23 22 21 20 18 17 18 20 20
32 30 29 29 28 28 29 30 30 31 31 32 33 33 33 33 34 35 38 40 43 49 57 61 63 65 66 66 66 66 68 70 71 74 78 79 72 64 54 44 43 52 56 52 51 48 43 42 46 49 50 48 48 48 45 44 45 45 46 46 44 42 42 41 40 40 41 41 39 37 35 34 32 31 30 29 28 27 27 26 24 22 20 19 19 21 21
32 30 29 28 28 28 29 28 29 30 31 32 32 33 33 33 34 36 38 40 41 45 54 60 64 66 67 67 67 67 69 71 73 74 77 82 81 74 65 52 46 53 59 54 50 47 40 36 40 46 51 50 49 49 48 48 49 47 46 47 46 45 44 42 44 47 47 46 42 38 37 37 35 34 34 33 31 30 29 28 26 24 23 22 22 23 23
31 29 28 27 27 27 28 27 27 28 30 30 31 33 33 34 34 36 39 41 41 43 50 57 63 66 67 69 69 69 70 71 73 76 77 79 80 77 71 61 50 53 58 56 53 47 36 29 36 46 53 53 51 50 51 53 53 51 49 49 47 45 44 44 47 51 51 50 48 43 39 39 38 37 37 36 35 34 33 32 30 27 26 26 26 26 25
30 28 27 27 27 27 28 28 28 28 30 30 31 32 33 33 34 36 38 40 41 42 46 52 60 65 68 70 71 71 71 70 72 76 77 78 79 76 73 67 57 53 57 59 57 51 42 36 36 48 58 59 54 52 53 54 54 53 50 49 49 48 46 45 46 48 48 49 49 47 44 42 41 40 40 40 39 38 36 34 33 31 29 29 30 30 29
29 27 26 26 26 27 28 28 28 28 29 30 31 31 31 33 35 35 35 38 40 41 43 48 55 61 66 70 72 72 71 69 70 76 78 78 79 76 73 72 64 55 57 63 64 59 53 49 46 51 62 62 58 55 54 54 54 52 49 49 52 52 49 47 48 49 47 45 44 43 42 43 44 44 44 44 42 40 38 37 36 35 33 32 33 33 33
29 26 25 25 24 25 27 27 26 28 28 29 30 30 30 32 34 33 33 35 37 40 41 44 50 57 64 70 73 73 72 69 68 73 77 78 79 77 74 74 71 62 59 65 70 68 65 62 59 61 63 62 60 58 57 57 58 55 50 49 52 51 47 47 51 53 51 48 45 42 41 43 46 48 48 47 44 43 42 41 40 38 37 36 36 37 36
26 24 22 21 21 22 24 25 25 27 28 29 29 30 30 32 33 32 31 32 35 38 40 42 47 54 61 68 72 72 73 71 68 70 74 76 77 77 75 74 74 69 64 66 73 73 69 68 68 66 62 62 63 61 58 59 62 60 56 56 59 57 51 49 52 54 54 54 51 48 47 47 48 50 50 48 46 46 45 44 43 41 40 40 40 40 39
23 21 18 17 17 18 21 22 24 26 28 29 29 29 31 32 31 31 31 32 34 36 38 40 44 50 57 65 70 71 72 73 70 68 70 74 76 77 78 77 75 74 70 68 72 74 70 67 67 66 65 66 66 63 60 60 63 65 62 62 66 64 57 54 56 56 56 56 53 51 51 50 49 51 52 50 49 47 46 45 45 43 42 42 43 43 43
20 17 14 13 14 14 17 20 22 25 27 28 28 29 31 32 31 30 30 31 33 35 36 39 42 47 54 61 67 70 71 74 73 68 66 71 76 77 79 80 78 77 73 70 72 74 70 68 68 67 66 69 69 67 64 60 62 66 67 66 67 66 62 59 60 59 57 57 54 53 53 52 49 50 52 53 51 49 48 47 47 45 44 43 42 43 45
18 15 13 13 12 13 16 19 20 22 25 25 26 29 31 30 29 29 29 30 32 33 35 37 41 46 51 57 64 69 71 74 76 73 68 72 77 79 80 81 81 80 76 73 74 75 71 68 70 70 69 69 70 69 66 61 59 63 68 68 64 60 59 61 64 64 61 58 57 57 57 56 52 50 50 52 52 52 50 49 47 46 43 42 42 44 46
17 15 14 13 11 13 17 18 18 20 23 24 26 29 29 28 27 28 29 30 30 31 33 36 40 46 51 57 63 68 71 74 76 75 74 77 80 81 81 82 82 82 80 77 77 78 75 70 69 71 72 71 69 68 67 65 61 61 63 64 59 54 53 56 61 64 64 60 57 58 59 58 56 52 48 48 50 51 51 49 47 46 44 44 47 50 49
16 16 16 12 12 16 18 17 18 20 21 23 26 27 27 26 26 28 29 30 28 28 31 34 38 44 51 58 65 68 70 73 73 72 74 79 81 82 83 84 84 83 83 82 81 81 80 75 70 70 72 71 67 66 65 66 65 64 64 64 61 59 58 58 60 61 62 62 61 61 61 61 61 60 56 54 52 52 53 53 50 47 45 48 52 54 53
16 16 15 12 14 19 18 17 20 21 21 23 25 24 24 25 25 26 28 28 27 25 27 32 36 44 53 61 66 67 68 71 72 70 71 77 82 83 82 84 86 85 84 85 86 85 84 82 78 75 74 72 68 65 63 64 66 67 68 69 69 66 64 63 64 64 64 66 67 66 66 67 67 67 64 61 57 56 56 55 53 50 48 50 54 55 53
16 15 14 14 16 18 17 18 21 21 21 24 26 24 22 23 25 25 25 26 25 23 24 29 35 43 55 65 68 67 67 69 71 71 72 74 79 84 84 82 84 87 86 86 88 89 88 87 85 84 82 80 77 72 67 65 64 66 68 71 74 75 73 70 68 68 68 70 70 70 70 70 70 69 66 63 60 58 57 56 56 55 54 55 58 56 54
16 15 16 18 17 16 17 20 22 21 21 23 26 25 22 22 23 24 24 24 24 22 22 27 35 45 57 67 69 67 67 68 71 72 74 75 77 82 85 83 82 85 87 88 89 90 91 91 90 89 89 89 87 83 77 72 68 66 66 66 69 74 76 76 75 74 73 73 73 73 72 72 72 71 69 67 66 64 62 62 61 60 60 61 63 60 58
16 15 17 18 17 16 18 21 21 21 21 21 23 25 23 21 21 22 23 23 23 22 21 25 35 48 60 67 70 69 67 68 70 72 73 76 78 80 83 84 82 82 86 88 90 91 92 93 93 92 92 93 93 90 86 81 77 72 68 66 65 66 69 73 76 78 78 78 77 77 75 74 73 72 71 70 70 70 70 69 69 68 66 66 67 67 65
16 15 15 17 16 17 19 21 21 20 21 21 21 24 24 22 20 21 22 22 23 22 21 24 33 49 62 67 68 69 69 67 68 71 73 75 78 80 81 82 81 80 82 87 90 91 92 93 95 93 92 93 95 94 91 88 85 81 75 70 67 64 63 65 70 75 79 80 80 80 80 78 77 75 74 73 72 73 73 74 74 73 72 71 71 72 71
17 15 14 15 16 16 19 21 21 19 20 21 20 21 24 23 20 19 21 21 22 22 21 23 31 44 60 68 66 64 67 67 67 70 72 75 78 80 80 80 79 78 79 83 88 90 91 92 94 94 92 91 92 94 95 92 90 87 84 79 74 70 67 65 64 67 73 78 80 80 80 80 79 78 76 75 75 75 76 77 77 77 77 77 76 75 75
17 16 15 16 17 17 18 21 21 19 19 20 19 19 21 23 20 19 20 20 21 21 21 23 28 39 54 66 68 63 62 64 65 67 70 74 77 80 82 82 80 77 75 78 83 87 89 90 92 94 93 90 88 89 93 95 94 92 91 88 84 80 76 73 69 65 66 70 74 77 78 78 78 78 78 77 76 76 77 80 81 81 81 80 80 79 79
18 17 17 18 18 17 18 19 20 20 19 19 18 19 20 21 22 20 19 19 20 21 21 22 27 35 47 60 68 67 64 61 61 63 66 71 74 77 81 84 85 82 78 76 78 82 86 88 90 92 92 91 88 86 88 91 93 93 93 93 91 87 83 79 76 71 68 67 69 72 75 77 77 77 77 77 77 76 77 80 82 83 84 84 84 83 82
19 19 19 19 18 18 19 19 19 20 20 18 18 18 18 19 22 21 18 18 19 20 21 22 26 34 44 54 62 66 66 62 59 59 62 67 71 74 78 82 86 87 84 80 78 80 83 86 88 90 92 91 89 86 85 87 89 90 92 94 93 91 87 82 78 76 73 71 71 72 75 77 78 78 79 79 79 78 79 80 82 83 84 85 85 85 85
20 21 20 19 19 19 20 19 19 20 20 18 17 17 17 18 20 22 20 18 18 20 22 23 25 31 42 52 58 62 63 62 60 59 60 62 66 70 75 78 82 86 88 86 82 80 82 84 87 88 90 91 90 87 85 85 86 87 89 92 93 92 90 86 82 79 76 73 72 73 76 79 81 81 81 82 81 81 81 82 83 83 83 84 85 87 87
23 22 21 20 19 19 20 20 20 20 19 18 17 17 17 17 18 20 21 19 17 18 21 23 25 28 35 46 55 61 63 63 61 59 59 60 61 65 71 75 79 82 86 88 87 83 82 83 86 88 88 90 91 90 88 87 86 84 85 87 90 91 91 89 86 83 79 75 73 73 75 78 80 82 82 83 83 83 83 84 85 86 87 87 88 89 90
24 23 22 21 20 20 20 20 21 21 19 18 17 17 17 18 18 19 21 21 18 16 18 21 24 26 30 37 45 53 60 63 63 61 58 56 56 60 66 72 76 79 82 86 88 87 84 83 84 87 89 89 90 91 91 91 89 87 85 85 86 89 90 89 88 85 82 79 77 75 74 75 77 80 81 82 83 84 86 87 88 89 90 91 92 92 93
24 24 23 22 21 20 20 21 22 21 20 18 17 17 18 18 18 18 20 21 21 18 17 19 21 23 26 30 36 42 48 55 60 61 60 57 56 57 61 67 73 76 79 82 86 87 87 85 84 86 88 90 91 91 91 92 93 93 91 88 87 87 88 88 88 86 84 81 80 79 79 78 78 79 80 82 83 85 87 88 89 89 90 91 92 93 93
25 25 24 23 22 21 20 22 23 22 20 19 18 17 18 19 19 19 19 20 21 21 18 18 19 21 22 25 29 34 39 44 51 56 58 59 60 60 59 62 67 71 76 81 84 85 86 87 86 86 87 89 92 93 93 93 94 96 97 95 93 91 90 89 88 88 86 84 82 81 82 82 82 82 82 83 84 85 87 88 89 89 89 89 90 91 92
25 26 25 24 23 23 22 23 24 23 21 20 19 18 19 19 19 19 20 20 21 21 20 18 18 19 21 22 24 28 33 37 43 50 55 58 60 60 59 59 62 66 71 76 82 85 86 86 87 86 86 87 90 94 96 95 95 97 99 100 100 98 96 94 93 92 91 90 88 86 85 86 87 87 87 87 87 88 89 89 90 90 90 90 90 90 92
27 28 27 25 24 24 24 24 25 24 22 21 20 19 19 20 20 19 19 21 21 22 21 20 18 17 19 20 21 24 27 31 35 42 51 56 57 57 56 57 59 63 66 70 76 81 84 85 86 87 87 87 87 90 94 97 99 99 100 102 104 104 104 102 100 99 98 98 98 96 93 92 92 93 93 93 92 92 92 93 93 94 95 95 94 94 94
30 31 30 28 27 26 26 27 26 25 24 23 22 21 21 21 21 20 19 21 22 22 22 21 19 18 18 18 18 20 23 26 30 34 42 50 54 55 53 53 57 63 66 67 69 72 76 79 82 85 88 89 89 88 90 93 97 100 101 102 104 106 108 108 107 106 105 105 106 106 104 102 100 100 100 100 99 97 97 96 96 97 98 99 100 100 100
33 34 33 32 30 29 29 29 28 27 27 26 25 24 23 23 22 20 20 22 23 23 22 22 20 19 18 17 17 18 20 23 26 30 34 40 47 51 52 52 54 59 65 68 69 68 69 70 73 77 82 87 89 90 90 90 91 94 97 100 103 105 108 110 111 111 111 110 110 111 112 112 111 109 108 107 107 105 103 102 101 101 101 102 103 105 106
36 37 37 35 33 32 32 31 31 31 30 29 28 26 25 24 24 22 22 23 24 24 23 23 22 21 19 17 17 18 19 21 23 26 30 34 38 43 47 50 52 55 61 66 69 71 70 69 70 73 77 81 84 87 90 91 91 91 92 95 97 100 103 107 110 112 114 115 115 116 116 117 117 116 114 113 114 113 112 110 109 108 108 107 107 108 109
38 38 39 38 35 34 34 34 34 34 34 32 30 28 27 27 27 25 24 24 25 25 24 24 24 23 22 20 18 18 19 21 22 24 27 31 35 37 40 44 49 53 57 61 64 67 70 71 72 74 78 80 82 84 86 89 90 92 93 93 94 95 97 99 102 106 109 112 114 116 117 118 118 117 116 116 116 117 118 118 118 117 117 117 116 116 116
39 39 39 40 38 37 36 36 37 36 35 33 32 31 30 30 30 28 26 26 27 27 26 25 25 24 23 22 21 21 21 22 23 24 25 28 32 36 39 41 44 48 52 56 58 62 66 69 71 73 77 80 83 85 86 86 87 89 90 92 94 95 95 96 97 99 101 103 106 108 111 113 114 115 116 117 117 119 120 121 122 123 124 124 124 124 124
41 39 40 41 40 38 38 39 38 37 36 34 33 33 32 32 32 30 28 27 28 28 28 27 26 26 25 24 23 22 23 23 24 26 26 27 28 32 37 41 44 45 47 50 52 56 60 65 68 71 74 77 80 83 85 86 87 87 88 89 90 92 94 95 96 97 98 100 101 102 104 106 108 110 112 114 116 118 119 121 123 124 126 127 128 128 128
42 41 41 41 41 40 41 41 39 38 37 36 36 35 34 33 33 32 30 29 30 30 30 29 29 28 27 26 25 25 24 25 25 26 28 28 28 29 31 36 41 45 48 49 49 51 54 58 62 66 70 74 77 81 83 85 86 87 88 89 89 90 92 93 94 95 97 98 99 100 101 103 104 106 108 110 112 115 117 119 121 123 125 127 128 128 129
44 42 41 41 42 42 43 42 41 40 39 38 37 36 35 34 34 33 32 32 31 31 31 32 31 29 28 28 28 27 27 27 27 27 28 30 30 30 30 31 34 39 44 48 50 53 55 56 58 60 63 67 70 74 78 81 84 86 87 89 90 92 93 94 95 96 97 98 98 99 100 100 102 103 105 107 109 111 114 117 119 122 124 126 127 128 129
44 43 42 42 43 43 44 44 43 41 39 39 38 37 36 36 35 35 35 34 33 33 33 33 32 31 31 31 31 30 29 29 28 28 29 31 31 32 32 31 31 32 35 38 41 46 50 53 56 58 60 63 65 67 70 74 77 80 82 85 87 89 92 94 96 98 99 100 101 101 102 102 103 104 105 106 107 108 111 113 116 119 122 124 126 128 130
45 43 43 42 42 43 44 44 43 40 39 39 39 38 37 37 37 37 37 36 36 36 36 35 35 35 35 34 33 32 31 30 29 29 30 31 33 33 33 32 32 33 33 33 34 36 39 41 45 48 52 55 59 62 64 67 70 73 76 79 81 84 87 89 92 94 96 99 100 101 102 103 104 104 105 105 106 107 109 110 112 115 118 121 124 126 128
44 43 43 42 41 41 42 43 42 41 40 39 39 39 38 39 39 40 40 40 39 39 38 37 37 38 37 35 33 33 32 30 29 30 31 32 34 34 34 34 35 36 35 35 35 35 36 37 38 39 41 44 46 49 52 56 59 63 66 70 73 76 79 82 85 87 90 92 94 95 96 97 98 99 100 101 101 102 103 105 107 109 111 114 117 120 123
43 43 42 41 40 40 41 42 42 42 40 39 38 38 38 39 41 42 42 42 41 40 39 38 40 40 39 36 35 34 32 30 30 31 32 33 35 35 34 35 37 38 38 37 37 38 38 39 39 40 40 41 42 43 45 47 49 52 55 57 60 64 68 71 74 77 80 83 85 87 89 90 92 94 96 97 98 99 100 101 103 104 106 108 111 114 116
42 41 40 39 39 39 40 42 42 42 40 38 38 38 39 40 40 40 40 41 42 42 42 43 44 44 41 38 36 35 33 32 31 31 33 34 35 35 35 36 38 39 39 39 40 40 40 41 42 42 42 43 44 45 46 47 48 50 51 53 55 58 61 63 66 68 71 74 76 78 80 82 84 86 89 91 92 94 96 97 99 102 103 105 108 110 112
41 40 39 38 38 39 40 40 42 42 41 40 39 40 39 37 37 38 40 42 44 46 47 48 48 45 42 39 37 37 35 33 32 32 33 35 36 36 36 36 38 39 40 41 41 41 42 43 44 44 45 46 46 47 49 50 51 53 54 55 56 58 60 62 63 65 66 68 70 72 73 74 76 78 80 82 84 86 88 90 93 95 97 99 102 104 106
39 38 37 37 38 38 38 39 41 42 42 41 41 40 39 37 37 39 43 45 47 48 49 49 48 44 41 40 40 39 37 34 33 33 34 35 37 38 37 37 38 39 40 42 42 43 43 45 46 46 47 48 49 50 52 53 54 55 57 58 59 60 61 62 63 64 64 66 67 68 69 70 72 74 75 77 80 82 84 86 88 90 92 94 96 98 99
37 36 36 36 36 37 38 39 41 43 44 45 44 41 39 38 41 44 47 50 52 52 52 51 48 45 43 43 44 42 38 36 35 35 35 36 38 40 40 40 40 41 42 43 44 44 45 47 47 48 50 51 52 53 55 56 57 58 60 61 62 62 63 63 63 64 65 65 66 67 68 70 72 73 75 77 80 82 83 85 86 88 90 92 93 95 96
36 34 35 36 36 37 38 40 41 42 45 47 46 43 40 42 45 49 52 53 52 52 51 51 50 48 47 47 46 43 40 38 38 37 37 38 40 42 43 43 43 43 44 45 46 46 47 48 50 51 52 54 55 56 57 59 60 61 62 64 64 64 64 64 64 65 66 66 67 69 70 72 74 75 77 79 81 83 84 85 86 88 90 91 92 93 93
34 33 35 36 37 37 38 39 40 40 42 44 45 45 44 45 47 50 51 49 45 42 41 42 43 45 47 47 46 44 41 39 39 39 41 42 43 44 45 45 45 46 47 48 48 49 50 51 52 53 55 56 57 58 60 61 63 64 65 66 66 65 65 65 65 66 67 69 70 72 73 75 76 77 79 81 83 84 85 86 87 88 89 90 91 91 92
34 35 36 37 38 38 38 38 37 36 37 39 42 44 45 44 43 44 45 43 39 36 37 38 39 42 45 46 48 48 48 46 45 45 46 46 46 46 47 47 48 48 49 50 51 51 52 53 54 55 56 58 59 61 63 65 66 67 66 66 66 66 66 66 67 68 70 71 73 74 76 77 78 79 80 82 83 84 85 86 86 87 87 88 89 89 90
37 38 38 38 38 37 35 33 33 34 35 36 39 40 40 39 38 38 39 39 37 37 38 41 42 44 45 45 47 49 51 51 51 51 49 47 47 48 48 49 49 50 51 52 52 53 54 55 55 57 58 60 62 64 65 66 67 66 65 65 66 67 68 68 69 71 72 74 75 77 79 80 80 80 81 82 83 83 83 84 84 84 84 84 85 86 86
40 41 40 41 41 38 32 29 31 33 34 34 36 36 35 34 35 36 37 37 38 41 44 47 50 52 52 52 51 51 51 51 52 51 48 47 47 49 49 50 51 52 52 53 54 55 56 56 58 59 61 63 64 65 65 65 65 64 65 65 66 68 70 72 73 74 75 76 77 79 81 81 81 81 81 82 83 82 82 81 82 82 81 81 81 81 81
41 40 38 37 36 33 29 28 30 32 33 32 32 32 31 32 33 35 36 40 44 49 52 52 52 52 52 51 51 50 50 49 49 47 45 45 47 49 49 50 52 53 54 55 55 56 57 59 60 62 63 64 64 63 62 62 62 64 66 67 68 70 73 75 77 78 79 79 79 80 81 81 81 81 81 81 81 81 80 79 79 78 77 76 76 75 75
31 29 27 28 31 32 31 30 32 34 33 32 31 29 29 31 34 37 42 47 51 50 47 43 40 38 38 37 38 39 40 42 43 44 45 46 47 49 50 51 53 54 55 56 56 58 59 60 61 62 62 61 61 61 61 61 62 65 68 70 71 73 76 78 80 81 81 81 81 81 81 81 80 79 79 79 78 77 76 75 74 73 72 71 70 69 68
Wind_Direction
286 282 279 278 278 276 274 272 269 266 263 260 258 255 250 246 244 241 234 227 224 223 221 219 218 216 214 214 214 213 211 210 209 207 203 201 201 206 211 216 216 210 207 208 211 216 220 221 223 224 223 223 223 221 221 220 222 228 233 235 235 235 235 233 229 227 230 234 232 229 228 229 229 229 230 230 231 234 236 239 242 244 244 244 243 242 240
284 281 280 280 280 278 276 274 272 269 265 262 260 258 254 249 244 243 239 230 225 225 222 218 217 217 215 213 212 211 210 210 209 208 206 205 209 213 213 213 213 209 206 205 207 212 216 217 219 222 224 225 225 222 222 223 226 231 233 234 235 235 237 238 236 231 230 232 231 228 228 230 232 233 234 235 235 235 237 239 242 245 247 246 245 245 246
281 279 280 281 281 279 277 275 274 272 268 265 263 260 257 253 247 243 241 235 228 226 224 220 217 216 215 213 211 211 210 209 209 210 208 208 211 214 212 211 211 209 207 205 204 208 214 221 227 227 224 225 226 223 220 222 226 230 232 233 234 236 238 241 241 239 236 236 235 233 232 232 234 237 238 238 238 238 239 240 242 245 248 248 248 249 248
278 278 279 280 279 277 276 276 275 273 271 268 266 263 260 257 252 246 242 238 232 227 225 222 219 216 215 214 211 210 210 209 208 210 210 210 211 212 211 211 213 212 210 207 206 204 203 217 238 239 230 224 225 226 223 222 226 229 233 236 236 237 240 242 243 241 239 238 237 236 235 234 234 238 239 240 240 239 239 241 242 244 246 249 251 253 252
276 276 278 277 276 276 277 277 275 273 272 269 267 264 263 261 256 250 243 239 236 231 226 224 221 217 214 214 212 210 209 210 209 209 210 211 211 210 210 210 213 213 211 208 205 199 189 190 212 230 230 223 222 225 223 223 229 232 235 238 238 237 237 238 238 237 236 237 237 235 236 235 234 236 239 240 241 241 241 243 245 246 247 248 251 255 255
273 274 275 274 275 277 278 278 276 275 273 271 269 267 265 263 259 253 246 241 239 235 230 226 223 219 215 213 213 211 208 208 209 209 210 211 211 210 210 210 212 213 212 208 205 199 190 183 191 213 224 222 218 220 219 220 225 229 230 234 235 232 229 230 233 233 230 230 232 234 238 238 235 236 239 241 243 245 245 246 247 248 249 249 251 255 256
270 272 272 273 275 277 278 278 277 276 274 273 272 269 266 263 260 256 251 245 242 238 233 227 222 220 217 214 213 212 208 207 208 209 210 211 211 210 210 211 211 212 211 209 206 203 198 195 200 212 220 219 215 216 216 216 218 222 225 227 224 221 221 226 230 231 228 227 230 236 241 241 238 238 240 242 244 246 247 248 247 248 250 252 253 255 257
266 270 272 274 276 277 280 280 278 276 275 273 273 271 268 264 261 258 254 249 245 241 234 227 222 219 217 214 212 211 210 208 208 210 210 210 211 210 210 211 211 212 211 208 207 207 206 206 211 217 219 217 215 214 215 216 217 219 223 224 222 224 231 233 230 229 228 229 234 240 243 244 242 240 241 242 243 245 248 249 248 248 250 253 255 257 259
261 265 269 275 280 282 284 283 278 276 274 274 274 273 270 266 262 259 254 249 247 243 236 228 222 218 217 214 211 210 210 209 209 210 211 211 211 211 210 211 212 214 213 211 208 209 209 210 213 216 218 218 217 216 216 216 217 220 224 225 226 230 236 236 232 232 234 235 238 241 243 245 244 241 241 243 242 243 246 249 250 251 253 255 258 260 260
253 258 264 274 284 292 291 287 284 281 277 276 276 273 271 268 265 260 254 249 248 245 238 229 221 217 216 213 210 209 210 210 209 209 211 212 212 212 211 211 213 214 214 213 211 210 211 212 213 214 217 218 218 218 217 216 217 220 224 227 228 232 237 237 235 234 235 236 238 241 242 243 245 244 245 245 244 244 245 248 250 253 255 257 259 260 262
244 252 261 272 291 301 295 296 298 292 284 280 277 273 272 272 269 264 257 251 247 245 240 231 221 216 214 211 208 208 210 211 210 209 210 212 213 212 211 211 213 215 213 212 211 210 210 212 214 215 216 216 216 216 216 215 216 218 222 225 229 234 239 240 237 236 236 237 239 241 242 242 244 245 246 246 245 245 245 246 248 250 253 258 259 260 262
240 251 260 272 292 295 294 305 313 304 294 287 280 276 276 277 273 269 263 256 250 246 242 234 222 214 211 207 205 206 208 211 212 212 212 213 213 213 213 212 213 215 214 211 210 210 209 209 211 214 215 214 213 214 215 215 216 217 219 222 226 229 233 236 237 236 237 237 238 239 240 240 238 237 239 243 245 244 243 245 248 250 253 257 259 260 260
242 252 261 274 285 285 293 311 317 312 308 298 288 283 282 281 276 271 267 262 256 249 244 237 224 214 209 204 202 204 206 209 211 213 214 214 213 212 213 213 213 215 215 213 212 211 210 209 209 210 212 212 211 212 215 216 218 220 221 223 225 228 231 234 236 235 234 233 233 234 235 235 234 234 237 242 245 246 246 248 250 252 252 254 257 258 259
245 254 264 276 279 280 293 309 310 313 318 313 308 303 294 284 276 272 271 269 264 255 246 238 226 215 207 202 201 202 204 207 210 212 214 216 215 213 213 214 215 215 216 215 215 214 213 211 211 211 211 212 212 214 217 219 221 223 225 226 228 230 232 233 234 234 233 233 234 235 236 237 239 241 243 245 246 247 249 250 251 251 250 250 253 254 257
248 257 266 271 274 282 296 301 301 310 321 327 333 333 312 290 278 272 273 274 270 261 247 235 224 214 206 202 201 202 204 206 209 211 213 217 217 215 213 215 216 216 217 217 217 217 216 215 215 216 217 218 219 220 221 222 223 223 225 227 229 232 233 234 234 234 234 236 238 239 240 242 245 247 247 246 246 247 248 249 250 250 250 251 253 253 252
251 257 263 268 275 285 292 293 297 310 323 334 343 342 323 300 285 276 274 276 276 268 250 232 219 211 206 203 202 203 205 206 209 211 214 217 219 217 215 215 217 218 219 219 219 219 219 219 219 220 221 223 225 226 226 226 225 224 225 227 229 231 233 234 235 235 235 237 239 241 242 244 246 248 248 247 248 249 250 251 252 252 251 252 253 254 252
252 257 262 269 277 283 285 289 298 311 323 334 342 343 332 313 294 281 276 278 281 275 256 233 216 207 204 204 205 205 206 207 209 211 214 217 219 219 218 217 218 220 221 221 221 221 221 221 222 223 224 225 228 229 230 229 228 227 228 229 229 230 232 233 234 235 237 238 239 241 242 244 246 248 248 248 249 251 252 253 254 254 253 253 254 255 255
253 258 264 269 276 281 282 287 297 310 320 327 336 342 338 324 304 288 278 276 281 280 264 239 219 207 204 205 206 207 208 209 210 212 214 216 218 219 219 219 220 221 222 223 223 222 222 223 224 225 226 227 228 229 230 231 230 229 229 231 232 233 234 234 234 234 236 238 239 241 243 244 246 247 248 249 250 251 253 254 255 255 255 254 255 255 257
253 258 264 269 274 278 279 284 295 309 317 320 327 338 339 332 316 293 277 270 273 278 270 248 226 212 206 206 207 209 209 210 212 214 215 217 218 219 219 219 220 221 223 224 224 224 224 224 225 227 228 229 230 231 231 231 231 231 231 233 234 236 238 238 237 236 237 238 240 242 244 245 246 247 248 249 250 251 252 253 254 255 256 256 256 256 257
253 258 265 270 274 278 280 284 294 306 312 315 322 329 335 337 328 303 282 270 266 269 270 255 235 220 212 208 208 209 210 211 213 215 217 218 219 219 219 219 220 222 224 225 226 226 226 226 226 227 229 230 232 233 233 232 231 232 233 235 236 238 240 241 240 240 239 240 241 243 245 246 248 248 249 250 251 251 252 253 254 255 256 256 257 257 257
252 258 263 268 274 279 281 284 291 299 305 312 318 322 328 336 334 318 295 278 266 262 264 257 240 226 218 213 211 211 212 213 216 218 219 220 220 220 220 220 221 223 225 226 227 227 228 228 227 228 229 231 232 234 234 234 234 233 234 236 238 239 241 241 241 241 242 242 243 244 245 247 248 250 250 250 250 250 251 252 253 254 255 256 257 258 258
253 257 262 269 274 277 280 284 288 294 301 308 313 317 323 332 336 331 312 286 269 260 258 256 245 230 221 216 214 214 215 217 219 222 223 222 222 222 223 222 222 223 225 227 228 228 229 229 228 228 229 231 232 233 235 236 236 236 236 237 238 239 241 241 241 241 242 243 244 244 245 246 247 249 250 250 249 248 248 249 251 253 254 255 256 257 258
254 258 262 267 272 275 279 284 287 291 297 305 308 312 319 326 334 337 326 301 275 260 254 253 249 236 225 219 217 217 217 219 221 224 226 226 225 225 226 225 225 225 226 227 228 230 230 230 230 230 230 231 232 233 233 235 237 238 239 239 239 240 241 242 242 241 241 242 244 244 244 244 245 246 247 247 247 246 247 248 250 251 252 254 255 256 257
253 257 261 265 269 274 278 282 285 289 295 301 305 309 315 320 327 335 334 320 292 267 255 250 249 245 235 227 223 222 222 222 223 225 228 229 229 229 229 229 229 228 228 228 229 230 231 231 231 231 231 232 232 232 232 233 235 237 239 239 240 241 241 242 243 243 242 241 242 243 243 244 245 246 246 246 245 245 246 248 250 252 253 254 255 256 257
254 258 262 266 269 272 276 278 282 287 293 298 304 307 310 316 321 328 333 330 316 288 265 254 249 247 243 238 234 231 230 228 227 227 230 232 234 233 231 231 232 232 232 231 231 231 232 233 234 234 233 233 234 234 233 233 233 234 236 238 239 239 240 241 241 242 242 242 242 242 243 244 246 247 248 249 249 248 249 249 251 253 254 255 256 256 257
256 259 261 264 266 269 272 274 277 283 290 297 301 305 306 311 317 322 327 332 331 317 289 267 256 251 248 245 243 240 238 235 232 231 232 235 237 237 235 233 233 234 235 235 234 234 234 235 235 236 236 235 235 235 235 235 233 233 235 236 236 237 238 239 239 239 240 241 242 243 244 245 246 247 248 250 251 251 252 252 253 254 255 255 256 256 257
254 256 258 261 264 266 268 269 273 280 288 295 299 302 304 306 311 316 321 328 334 332 316 291 272 264 260 255 248 243 242 239 236 234 234 236 238 238 238 236 235 235 236 237 237 237 237 237 236 237 237 237 237 237 237 237 236 235 235 235 236 237 237 236 237 237 238 239 241 242 244 246 247 247 248 248 249 250 251 252 253 254 255 255 256 257 257
251 254 256 259 261 262 264 267 271 276 283 289 294 298 300 302 306 311 317 323 329 331 327 314 293 278 272 268 259 249 243 241 239 237 236 237 238 238 238 238 238 237 239 240 240 239 239 239 238 238 238 238 238 238 238 238 238 237 237 236 237 238 238 238 237 238 239 240 241 242 244 246 247 248 248 248 248 248 249 250 251 252 254 255 256 257 257
250 254 256 258 258 259 261 264 268 273 277 283 288 293 295 298 302 307 313 318 320 324 326 326 315 295 280 276 270 259 249 245 242 238 236 237 240 241 240 239 238 238 240 242 242 242 242 242 242 241 240 240 240 240 239 239 239 240 239 239 239 239 240 240 240 241 241 242 243 244 245 247 248 249 249 249 248 248 248 249 249 250 252 253 254 255 256
249 252 255 256 256 257 259 261 265 269 273 277 283 288 292 296 299 305 309 310 311 316 323 328 326 312 293 281 276 268 257 249 246 243 239 237 239 241 242 241 238 237 239 242 244 245 246 246 246 245 244 243 243 243 242 241 241 241 241 241 241 241 241 242 243 243 244 244 245 246 247 248 250 250 251 250 250 249 249 249 250 250 251 252 253 254 254
249 252 254 256 257 257 260 262 265 267 270 274 280 286 291 294 297 300 303 302 305 310 316 322 326 323 309 293 281 274 267 257 250 246 243 241 240 240 242 242 241 239 239 241 243 245 248 249 249 249 248 247 246 246 246 246 245 244 244 244 244 244 244 245 245 246 246 247 247 247 248 250 252 253 253 252 252 251 251 251 251 251 251 251 252 252 253
252 253 255 256 258 259 261 263 265 266 269 273 279 284 288 290 292 295 297 298 301 305 310 313 318 321 320 310 292 277 271 267 260 253 248 245 243 242 242 243 243 242 241 241 242 244 246 249 251 252 252 251 250 249 249 249 248 248 248 248 247 247 247 247 248 248 249 250 250 251 251 252 253 254 254 254 253 253 253 254 254 254 254 254 254 254 254
252 254 254 255 256 258 260 262 263 266 270 275 279 282 284 286 288 292 295 296 297 301 304 305 309 314 317 316 307 292 279 272 269 264 256 250 246 244 244 244 244 244 244 244 244 244 245 247 249 250 252 253 254 254 254 253 253 252 253 252 252 251 251 251 251 252 252 253 253 254 254 254 255 255 255 255 255 255 255 256 256 257 257 258 258 258 258
249 252 254 254 254 255 258 261 263 267 271 276 278 279 282 284 286 289 293 294 294 296 298 299 301 305 309 310 309 302 291 280 273 270 267 261 253 249 247 246 246 246 247 247 247 247 247 247 248 249 250 251 253 255 256 257 257 257 257 257 256 256 256 256 256 256 256 256 256 257 257 257 257 257 257 257 257 257 257 257 258 258 259 259 260 260 261
246 249 252 254 255 255 257 260 263 267 271 274 276 278 280 282 284 287 290 291 291 293 294 294 294 297 301 303 303 303 298 289 280 273 271 269 265 259 254 251 250 250 250 251 251 251 250 250 250 250 251 252 253 254 256 257 258 259 260 260 260 260 260 260 260 260 260 260 260 260 260 260 260 260 259 259 259 259 259 259 260 260 260 260 261 262 263
245 247 250 254 255 256 257 259 262 266 269 273 275 277 277 278 281 284 287 289 290 290 290 290 290 291 294 296 298 299 298 293 285 277 272 270 269 268 263 259 256 255 254 254 254 255 254 253 253 253 253 253 253 254 255 257 258 260 261 262 262 263 263 264 264 264 263 263 263 263 264 264 264 263 263 263 262 262 262 262 262 262 262 262 262 263 263
245 245 247 250 252 255 257 260 263 266 270 272 274 275 275 276 278 281 283 286 287 287 288 287 286 287 290 294 294 295 294 291 286 280 274 270 269 269 269 267 264 261 259 258 257 257 258 258 257 257 257 256 256 256 257 257 258 259 260 261 262 263 264 265 265 266 266 266 266 266 267 267 267 267 266 266 265 265 264 264 264 264 264 264 264 264 264
245 245 246 248 252 255 259 261 264 267 271 272 273 274 275 276 278 280 283 285 285 285 285 285 282 283 289 294 294 292 290 288 285 282 276 272 270 269 270 271 271 269 267 264 262 261 261 260 260 260 260 260 259 259 259 259 260 260 261 261 262 263 263 264 264 265 266 266 267 267 268 268 269 269 269 269 268 268 267 267 266 266 265 265 265 265 265
246 247 249 251 253 256 259 261 264 267 269 271 273 275 276 278 279 281 283 284 283 283 283 281 280 282 289 293 294 292 288 285 283 282 279 275 271 269 269 271 272 272 272 272 271 269 268 266 265 264 263 263 262 262 261 261 262 262 262 262 263 263 264 264 264 265 266 266 267 267 268 268 269 269 270 270 270 270 269 269 268 268 268 267 267 266 266
246 248 250 252 254 256 259 263 265 267 268 270 274 277 279 281 283 284 284 285 285 283 281 279 279 284 289 291 292 291 288 284 282 281 280 276 273 271 270 271 272 272 273 274 274 275 274 274 273 272 271 270 269 268 267 266 266 265 265 265 265 265 265 265 266 266 266 267 267 267 268 268 269 269 269 269 270 270 270 270 269 269 269 269 269 268 268
245 248 250 252 254 256 259 262 265 267 269 271 274 277 281 283 284 285 286 287 287 285 282 280 282 285 287 289 290 289 286 282 281 281 280 277 274 272 271 271 271 271 272 273 274 275 276 276 276 276 276 275 275 275 274 274 273 272 272 271 271 270 270 269 269 268 268 268 268 268 268 268 268 269 269 269 269 269 269 269 269 269 269 269 269 269 269
244 247 249 252 253 255 258 261 264 267 269 271 274 277 281 282 283 283 284 284 284 283 282 282 282 283 283 284 286 287 284 280 279 280 280 278 276 273 272 271 271 271 272 272 273 274 275 276 276 276 277 278 278 278 278 278 278 278 277 277 277 276 275 274 273 272 272 271 271 270 270 270 270 269 269 269 269 269 269 269 269 269 269 270 270 270 270
244 246 247 249 252 255 259 263 266 268 270 272 274 276 278 278 278 279 279 279 278 278 279 280 280 279 278 279 282 285 283 279 277 279 279 279 278 277 275 273 273 273 273 273 273 274 275 275 276 277 278 278 279 280 280 280 281 281 281 282 281 281 280 279 277 276 274 274 273 273 272 272 272 271 271 271 271 271 271 271 270 270 270 270 270 271 271
244 245 247 250 253 257 260 263 266 269 272 274 274 275 276 275 274 274 275 274 274 275 276 276 275 274 273 275 279 283 282 277 275 277 278 277 277 278 278 277 276 276 276 276 276 276 276 276 277 278 279 279 280 280 281 282 283 283 284 284 284 284 283 281 279 277 276 275 274 274 273 273 273 273 273 273 273 272 272 272 272 272 272 272 273 273 273
244 246 249 252 254 257 261 265 269 272 274 274 274 275 275 273 270 270 271 273 274 274 274 272 270 269 270 272 276 280 279 276 274 276 277 277 276 276 278 279 279 278 278 278 278 277 277 277 278 279 280 280 281 282 282 283 285 286 286 286 286 285 283 281 279 277 276 275 275 274 274 274 273 273 273 273 273 274 274 274 274 275 275 275 275 275 276
245 248 251 255 258 261 265 268 271 274 275 277 278 277 273 269 269 270 271 272 273 273 273 272 270 269 269 271 273 276 275 273 271 274 277 277 275 275 276 278 279 279 280 280 279 278 277 277 278 279 280 281 282 283 284 285 286 287 287 287 286 284 282 280 278 277 276 276 275 275 275 275 275 275 276 276 276 276 276 277 277 277 277 277 278 278 278
249 252 255 258 261 264 267 270 272 274 274 274 274 273 272 272 274 274 273 273 272 272 272 273 273 272 271 270 270 271 271 269 270 275 279 277 275 274 276 277 278 280 280 281 280 280 279 279 279 280 281 282 283 284 285 286 287 287 287 286 285 284 282 280 279 279 278 278 278 278 278 278 278 278 278 279 279 279 279 279 279 279 279 280 280 280 280
254 255 258 261 263 265 268 270 270 268 266 266 268 272 275 278 277 274 273 276 277 277 275 276 276 276 275 272 270 270 270 269 271 277 279 276 273 273 276 277 278 280 281 281 281 282 281 282 282 283 284 285 285 286 287 288 288 288 287 286 285 284 283 282 282 281 281 281 281 281 281 281 280 280 280 280 280 280 280 281 281 281 281 282 282 282 282
257 258 259 260 262 264 266 265 262 261 262 265 269 273 277 277 272 268 269 273 275 275 276 278 279 278 276 273 271 271 271 270 272 276 277 273 270 272 275 276 278 280 281 281 282 283 283 283 284 285 285 286 287 288 289 289 289 288 287 287 286 286 286 285 285 284 284 284 284 284 283 283 283 283 283 283 282 282 282 283 283 283 283 283 283 283 283
259 260 260 260 261 261 258 252 252 257 263 267 269 270 270 270 268 266 266 266 268 270 274 275 274 273 272 271 270 270 269 269 271 272 271 268 268 271 274 275 277 279 280 280 282 282 283 284 285 286 287 288 289 289 289 289 289 288 288 288 288 288 288 288 287 287 287 287 286 286 286 286 286 286 286 285 285 285 285 285 285 285 285 284 284 284 284
259 259 258 256 253 247 236 231 240 251 258 260 262 262 260 259 260 262 264 268 273 277 278 277 275 273 271 270 268 267 266 266 267 267 266 266 269 271 273 274 276 278 279 280 282 283 283 285 286 287 288 289 289 289 289 289 290 290 290 290 290 290 290 290 289 289 289 289 288 288 288 288 288 288 287 287 287 287 287 287 286 286 285 285 285 285 285
250 246 240 231 225 220 219 227 241 250 252 250 249 250 251 254 259 265 271 276 280 281 280 277 275 272 269 268 266 264 262 262 263 263 265 267 269 271 273 275 277 279 280 282 283 284 285 287 288 288 288 289 289 289 290 290 291 291 291 291 291 291 291 290 291 291 291 291 290 290 290 290 290 289 289 289 289 288 288 287 287 286 286 286 286 285 285
Height
10799 10798 10798 10798 10798 10797 10796 10796 10796 10797 10797 10797 10798 10799 10802 10803 10804 10805 10807 10810 10814 10816 10818 10822 10826 10830 10835 10841 10848 10856 10863 10870 10876 10881 10886 10889 10891 10895 10900 10905 10909 10914 10920 10925 10931 10936 10940 10944 10948 10951 10954 10957 10960 10962 10964 10966 10967 10965 10965 10970 10974 10976 10977 10978 10979 10980 10977 10974 10976 10981 10984 10985 10986 10988 10989 10990 10991 10992 10994 10995 10997 10998 10999 11000 11001 11001 11000
10795 10794 10794 10794 10793 10793 10792 10791 10791 10791 10792 10792 10792 10794 10796 10798 10799 10800 10800 10804 10807 10808 10810 10815 10819 10823 10828 10834 10841 10848 10854 10861 10867 10872 10877 10881 10883 10888 10894 10900 10904 10909 10914 10920 10926 10931 10936 10941 10945 10948 10951 10953 10955 10957 10960 10961 10962 10961 10962 10966 10970 10972 10973 10974 10975 10974 10969 10968 10972 10977 10979 10981 10983 10985 10986 10986 10987 10989 10990 10991 10993 10995 10997 10998 10998 10999 10999
10791 10790 10790 10789 10789 10788 10787 10787 10787 10787 10786 10787 10787 10788 10790 10792 10793 10794 10794 10797 10800 10802 10804 10808 10811 10816 10822 10827 10833 10839 10845 10852 10858 10863 10868 10873 10876 10881 10888 10894 10898 10903 10909 10917 10923 10928 10935 10941 10944 10945 10947 10949 10951 10953 10955 10956 10957 10957 10958 10961 10964 10967 10969 10970 10970 10968 10966 10967 10971 10974 10976 10978 10980 10982 10983 10984 10985 10986 10987 10988 10990 10993 10994 10995 10996 10996 10997
10787 10786 10786 10785 10784 10784 10783 10783 10784 10783 10782 10782 10782 10783 10784 10786 10787 10788 10788 10790 10793 10796 10798 10800 10803 10809 10815 10820 10825 10831 10838 10845 10850 10855 10860 10865 10870 10875 10882 10888 10892 10896 10904 10912 10919 10926 10933 10941 10945 10942 10941 10945 10947 10948 10950 10952 10952 10954 10955 10957 10960 10963 10965 10965 10963 10962 10963 10965 10968 10971 10973 10975 10976 10978 10980 10981 10982 10983 10984 10986 10988 10990 10992 10993 10993 10994 10994
10782 10782 10782 10781 10780 10780 10779 10779 10779 10778 10777 10777 10777 10778 10779 10780 10780 10780 10782 10784 10787 10791 10793 10795 10798 10804 10809 10814 10819 10825 10832 10838 10843 10848 10853 10858 10864 10870 10877 10883 10886 10890 10896 10903 10912 10919 10923 10928 10933 10931 10930 10936 10940 10941 10944 10947 10948 10951 10953 10954 10956 10958 10960 10958 10956 10956 10959 10961 10964 10967 10969 10971 10973 10974 10975 10976 10977 10979 10981 10983 10985 10987 10989 10990 10991 10991 10992
10778 10779 10778 10777 10777 10776 10775 10775 10775 10774 10773 10773 10772 10773 10774 10774 10773 10774 10777 10779 10782 10785 10787 10790 10793 10798 10802 10807 10813 10819 10825 10831 10836 10841 10845 10851 10857 10865 10872 10878 10880 10883 10889 10895 10903 10910 10912 10913 10915 10916 10919 10927 10932 10934 10938 10941 10944 10947 10950 10951 10952 10953 10955 10955 10951 10951 10956 10959 10960 10963 10965 10967 10969 10970 10970 10971 10973 10976 10978 10980 10982 10984 10986 10988 10988 10989 10989
10774 10775 10775 10774 10773 10772 10771 10771 10771 10770 10769 10769 10768 10768 10768 10768 10768 10770 10773 10774 10775 10777 10780 10783 10786 10790 10794 10798 10805 10812 10819 10825 10831 10835 10839 10844 10851 10859 10865 10869 10872 10876 10881 10887 10893 10899 10904 10906 10906 10909 10914 10920 10924 10927 10931 10935 10938 10942 10945 10947 10947 10947 10948 10949 10946 10945 10951 10954 10955 10958 10960 10962 10964 10965 10966 10968 10970 10972 10973 10975 10977 10980 10982 10983 10985 10985 10986
10771 10771 10771 10770 10770 10769 10768 10767 10767 10766 10765 10764 10764 10763 10762 10762 10763 10765 10767 10768 10768 10768 10771 10776 10779 10782 10786 10791 10799 10807 10814 10820 10825 10829 10834 10839 10844 10851 10856 10860 10865 10868 10873 10880 10885 10889 10895 10899 10901 10905 10910 10913 10916 10920 10924 10928 10933 10936 10939 10941 10942 10941 10941 10941 10939 10939 10943 10947 10949 10952 10954 10956 10958 10960 10962 10965 10966 10967 10968 10970 10972 10975 10977 10979 10980 10981 10982
10768 10767 10767 10767 10767 10766 10765 10764 10763 10762 10761 10760 10760 10758 10757 10757 10758 10760 10762 10763 10762 10762 10765 10770 10773 10776 10780 10786 10793 10801 10806 10812 10818 10824 10829 10832 10836 10842 10847 10852 10856 10860 10866 10872 10877 10881 10886 10890 10894 10899 10903 10906 10909 10913 10916 10921 10925 10928 10931 10932 10934 10934 10935 10935 10934 10935 10936 10939 10943 10946 10948 10951 10953 10955 10957 10960 10961 10963 10964 10966 10968 10971 10973 10975 10975 10976 10976
10764 10764 10765 10764 10764 10764 10762 10761 10760 10759 10758 10757 10756 10754 10752 10752 10753 10754 10756 10758 10757 10757 10760 10764 10767 10771 10775 10781 10788 10794 10798 10803 10809 10815 10820 10823 10827 10832 10838 10843 10848 10853 10860 10866 10870 10874 10879 10883 10887 10891 10895 10899 10902 10906 10909 10913 10917 10920 10923 10924 10926 10927 10927 10928 10929 10929 10930 10933 10937 10940 10943 10947 10950 10952 10953 10955 10956 10959 10961 10963 10965 10968 10970 10971 10972 10972 10970
10761 10761 10762 10762 10761 10761 10759 10758 10758 10756 10754 10753 10752 10750 10748 10748 10749 10750 10751 10752 10752 10753 10755 10758 10762 10765 10769 10775 10781 10787 10792 10796 10802 10807 10810 10813 10818 10823 10829 10834 10839 10845 10851 10857 10862 10866 10872 10876 10881 10885 10888 10892 10895 10898 10901 10905 10909 10911 10913 10916 10918 10919 10919 10920 10923 10924 10925 10928 10932 10935 10939 10944 10946 10946 10948 10949 10951 10954 10956 10959 10962 10965 10967 10969 10969 10966 10964
10758 10758 10759 10759 10759 10758 10756 10756 10755 10753 10751 10750 10748 10746 10746 10747 10747 10746 10745 10746 10747 10749 10750 10752 10756 10759 10764 10769 10775 10780 10785 10790 10796 10801 10803 10804 10809 10815 10820 10826 10831 10837 10843 10849 10854 10859 10864 10869 10874 10879 10882 10885 10888 10890 10894 10898 10901 10903 10905 10908 10909 10910 10911 10913 10915 10918 10921 10924 10927 10930 10934 10937 10938 10939 10941 10943 10946 10948 10951 10955 10958 10961 10965 10966 10962 10958 10957
10755 10755 10755 10756 10757 10755 10754 10753 10752 10750 10748 10746 10744 10743 10744 10745 10744 10742 10741 10741 10743 10746 10746 10748 10751 10755 10759 10764 10769 10774 10778 10783 10790 10794 10796 10797 10802 10807 10813 10818 10823 10829 10835 10841 10846 10851 10856 10862 10868 10872 10875 10878 10880 10883 10887 10891 10893 10895 10898 10901 10902 10903 10905 10907 10909 10913 10916 10919 10922 10924 10926 10928 10929 10931 10934 10937 10940 10942 10945 10949 10952 10957 10961 10961 10955 10952 10952
10751 10752 10753 10754 10754 10752 10752 10751 10750 10748 10746 10743 10741 10741 10742 10742 10740 10738 10738 10737 10739 10741 10742 10743 10746 10750 10755 10759 10763 10768 10772 10777 10782 10786 10787 10791 10796 10801 10806 10811 10816 10821 10828 10834 10839 10843 10849 10854 10859 10863 10867 10869 10872 10876 10880 10883 10886 10889 10891 10894 10896 10897 10899 10901 10903 10908 10912 10913 10915 10917 10919 10921 10922 10925 10928 10931 10934 10937 10939 10942 10946 10951 10953 10951 10947 10947 10947
10748 10749 10750 10751 10751 10750 10750 10749 10747 10745 10744 10742 10740 10739 10739 10738 10736 10735 10735 10734 10734 10736 10737 10739 10742 10746 10750 10754 10758 10762 10767 10771 10774 10778 10781 10785 10790 10795 10800 10805 10809 10814 10820 10825 10830 10836 10841 10846 10851 10855 10858 10861 10864 10868 10872 10876 10879 10882 10884 10887 10889 10891 10892 10894 10897 10902 10906 10907 10908 10910 10913 10915 10916 10919 10921 10924 10927 10930 10932 10934 10938 10942 10943 10942 10940 10941 10943
10746 10747 10747 10747 10747 10748 10747 10746 10744 10743 10742 10740 10738 10737 10735 10734 10733 10733 10732 10732 10731 10732 10734 10736 10738 10742 10746 10750 10754 10758 10762 10765 10769 10772 10776 10780 10784 10789 10795 10799 10804 10809 10813 10818 10823 10828 10833 10838 10843 10846 10850 10853 10856 10859 10864 10868 10872 10874 10877 10879 10881 10883 10885 10887 10890 10894 10897 10899 10901 10903 10906 10908 10909 10911 10914 10916 10919 10921 10924 10926 10929 10932 10934 10934 10933 10934 10936
10743 10744 10744 10744 10745 10745 10744 10742 10741 10740 10740 10739 10737 10735 10732 10731 10729 10729 10729 10729 10729 10729 10730 10732 10735 10739 10742 10746 10750 10753 10757 10760 10764 10767 10771 10775 10779 10784 10790 10794 10799 10803 10807 10810 10815 10820 10825 10830 10834 10839 10842 10845 10848 10851 10855 10860 10864 10867 10869 10871 10873 10875 10877 10879 10882 10885 10888 10891 10893 10895 10897 10900 10902 10903 10906 10908 10911 10913 10915 10917 10919 10922 10925 10925 10925 10926 10929
10740 10741 10742 10742 10742 10742 10740 10739 10738 10738 10737 10736 10735 10734 10731 10728 10727 10726 10726 10726 10726 10726 10727 10729 10732 10736 10739 10743 10746 10749 10752 10756 10759 10763 10767 10769 10773 10779 10784 10788 10793 10797 10800 10803 10807 10812 10818 10822 10826 10831 10835 10838 10841 10844 10847 10851 10855 10859 10861 10863 10865 10867 10870 10872 10874 10877 10879 10882 10884 10887 10889 10891 10894 10896 10898 10900 10903 10905 10907 10909 10910 10912 10914 10916 10917 10918 10919
10737 10738 10739 10739 10739 10739 10738 10736 10735 10735 10735 10734 10733 10732 10730 10727 10725 10724 10723 10723 10724 10724 10724 10725 10728 10731 10735 10739 10742 10745 10748 10751 10754 10758 10762 10765 10768 10773 10779 10784 10788 10791 10794 10797 10801 10805 10810 10815 10819 10823 10827 10831 10834 10837 10840 10843 10846 10850 10853 10855 10857 10860 10862 10864 10866 10868 10871 10873 10876 10878 10880 10882 10885 10887 10889 10891 10894 10896 10898 10900 10901 10903 10904 10906 10907 10909 10910
10734 10735 10736 10736 10736 10736 10735 10733 10732 10733 10733 10732 10731 10730 10728 10726 10724 10721 10720 10721 10722 10722 10722 10723 10725 10727 10730 10733 10737 10740 10743 10746 10749 10753 10756 10759 10763 10768 10773 10778 10782 10785 10788 10791 10794 10798 10802 10807 10811 10815 10818 10822 10826 10829 10832 10835 10839 10841 10844 10846 10849 10851 10854 10856 10858 10861 10863 10865 10867 10869 10871 10873 10876 10878 10880 10882 10884 10887 10889 10890 10892 10894 10895 10896 10897 10899 10900
10731 10732 10732 10732 10732 10732 10732 10731 10730 10730 10730 10729 10729 10728 10726 10724 10722 10720 10718 10718 10719 10720 10720 10721 10722 10724 10726 10728 10732 10735 10738 10742 10745 10748 10751 10754 10759 10763 10767 10771 10775 10778 10781 10784 10787 10790 10794 10798 10803 10806 10809 10813 10817 10820 10823 10827 10830 10833 10835 10837 10840 10843 10846 10848 10851 10853 10855 10857 10859 10861 10863 10865 10867 10869 10871 10873 10875 10877 10879 10881 10882 10884 10885 10887 10888 10889 10890
10728 10729 10729 10729 10729 10729 10728 10728 10727 10727 10726 10727 10726 10725 10724 10722 10720 10718 10716 10715 10716 10717 10718 10719 10720 10722 10723 10725 10728 10731 10735 10738 10741 10743 10746 10749 10754 10758 10760 10764 10767 10771 10773 10776 10780 10783 10787 10790 10794 10798 10801 10805 10808 10812 10815 10818 10821 10824 10827 10829 10831 10834 10837 10840 10843 10845 10847 10849 10851 10853 10855 10856 10858 10860 10862 10864 10866 10868 10870 10871 10873 10874 10876 10877 10878 10879 10880
10724 10724 10725 10726 10726 10725 10725 10725 10724 10724 10723 10724 10724 10723 10722 10721 10719 10717 10715 10713 10713 10714 10715 10716 10718 10719 10721 10722 10724 10727 10730 10733 10736 10739 10741 10745 10749 10752 10754 10757 10760 10763 10766 10769 10773 10776 10780 10783 10786 10790 10793 10797 10800 10804 10806 10809 10812 10815 10818 10820 10823 10826 10828 10831 10834 10836 10839 10841 10842 10844 10846 10847 10849 10850 10852 10854 10856 10858 10860 10861 10862 10864 10865 10866 10867 10868 10869
10719 10720 10721 10722 10723 10723 10722 10722 10721 10721 10720 10720 10720 10720 10720 10719 10718 10716 10714 10711 10711 10712 10713 10714 10715 10717 10718 10720 10722 10724 10726 10728 10732 10735 10737 10741 10744 10747 10749 10751 10754 10756 10759 10762 10766 10769 10772 10775 10778 10782 10785 10789 10792 10795 10798 10801 10805 10808 10809 10811 10814 10817 10820 10823 10825 10827 10830 10832 10834 10835 10837 10838 10839 10841 10842 10844 10846 10848 10850 10851 10852 10853 10854 10855 10857 10858 10859
10715 10716 10717 10718 10719 10719 10719 10718 10717 10717 10717 10717 10717 10717 10717 10716 10715 10715 10713 10711 10709 10709 10710 10711 10712 10713 10714 10716 10718 10720 10722 10725 10729 10732 10734 10737 10739 10741 10743 10744 10747 10750 10753 10756 10758 10762 10765 10768 10771 10774 10777 10781 10784 10787 10790 10794 10797 10800 10801 10803 10805 10808 10811 10814 10816 10818 10821 10823 10825 10826 10828 10829 10831 10831 10832 10834 10836 10838 10839 10840 10841 10842 10843 10845 10846 10847 10848
10712 10712 10714 10715 10715 10716 10716 10715 10714 10714 10714 10714 10714 10714 10713 10713 10712 10712 10711 10710 10708 10707 10707 10707 10708 10710 10711 10712 10713 10715 10717 10720 10724 10727 10730 10732 10732 10733 10735 10738 10741 10744 10746 10748 10751 10754 10758 10761 10764 10767 10770 10773 10776 10779 10782 10786 10789 10791 10792 10795 10798 10800 10802 10805 10807 10809 10811 10813 10815 10817 10818 10820 10821 10822 10823 10824 10825 10827 10828 10829 10830 10831 10832 10833 10834 10835 10836
10707 10708 10710 10711 10712 10712 10712 10712 10711 10710 10710 10710 10710 10710 10710 10709 10709 10709 10709 10708 10707 10706 10704 10704 10704 10706 10707 10707 10708 10710 10711 10714 10717 10720 10723 10724 10724 10726 10729 10732 10735 10738 10739 10740 10743 10746 10749 10752 10755 10759 10762 10765 10768 10771 10774 10778 10781 10783 10784 10787 10790 10792 10794 10796 10798 10800 10802 10804 10806 10807 10808 10809 10811 10812 10813 10814 10815 10816 10817 10818 10819 10820 10821 10822 10822 10823 10824
10703 10703 10705 10707 10707 10708 10708 10708 10707 10706 10706 10707 10707 10707 10707 10706 10705 10705 10706 10706 10705 10704 10702 10701 10701 10702 10702 10703 10704 10705 10706 10708 10710 10713 10715 10715 10716 10720 10724 10727 10731 10733 10733 10733 10734 10737 10740 10743 10747 10750 10753 10756 10759 10763 10766 10769 10772 10774 10776 10779 10782 10784 10786 10788 10790 10791 10793 10794 10796 10797 10798 10799 10801 10802 10802 10803 10804 10805 10806 10808 10809 10810 10810 10810 10811 10811 10811
10699 10699 10700 10702 10703 10703 10704 10704 10703 10703 10703 10703 10703 10703 10703 10702 10702 10702 10702 10702 10702 10701 10700 10699 10699 10698 10698 10699 10699 10700 10702 10703 10705 10706 10708 10709 10710 10714 10719 10723 10725 10727 10727 10726 10727 10729 10732 10736 10740 10742 10745 10748 10751 10754 10757 10760 10762 10765 10768 10771 10773 10775 10777 10779 10781 10782 10783 10784 10785 10786 10787 10788 10790 10791 10791 10792 10793 10793 10794 10795 10797 10799 10799 10799 10799 10799 10799
10695 10694 10694 10696 10698 10699 10699 10699 10699 10699 10699 10699 10699 10700 10699 10698 10698 10699 10699 10699 10698 10698 10697 10697 10696 10695 10695 10695 10696 10696 10697 10699 10700 10701 10702 10704 10705 10708 10713 10716 10719 10720 10720 10720 10721 10723 10726 10730 10732 10735 10737 10740 10742 10745 10747 10750 10753 10756 10758 10761 10764 10766 10767 10769 10770 10771 10773 10774 10774 10775 10776 10777 10778 10779 10780 10781 10782 10782 10782 10782 10783 10785 10786 10787 10786 10785 10786
10690 10689 10689 10691 10692 10694 10694 10694 10694 10694 10694 10694 10695 10696 10696 10695 10695 10695 10696 10695 10694 10694 10694 10694 10693 10693 10692 10692 10693 10693 10693 10694 10695 10696 10697 10699 10700 10703 10706 10709 10711 10713 10714 10715 10716 10717 10720 10722 10724 10726 10728 10730 10733 10736 10738 10741 10744 10747 10748 10750 10753 10756 10757 10758 10759 10760 10761 10762 10763 10764 10765 10766 10766 10766 10768 10769 10769 10769 10770 10770 10770 10770 10771 10771 10770 10769 10770
10685 10684 10684 10686 10688 10689 10689 10689 10689 10689 10689 10690 10691 10693 10692 10691 10691 10692 10692 10691 10690 10690 10690 10690 10689 10689 10689 10689 10689 10690 10690 10690 10691 10692 10693 10694 10695 10697 10699 10701 10703 10705 10706 10708 10709 10712 10714 10716 10718 10718 10719 10721 10724 10727 10729 10731 10734 10737 10738 10740 10742 10745 10746 10747 10748 10748 10749 10750 10751 10751 10753 10754 10754 10754 10755 10756 10755 10756 10756 10757 10757 10756 10756 10755 10754 10752 10752
10679 10679 10679 10680 10683 10684 10684 10684 10684 10683 10684 10686 10687 10688 10688 10687 10686 10688 10689 10687 10686 10686 10686 10686 10685 10685 10685 10685 10685 10685 10686 10687 10687 10688 10689 10690 10691 10692 10694 10695 10697 10698 10699 10701 10703 10706 10708 10710 10710 10711 10711 10713 10716 10718 10720 10722 10725 10728 10729 10730 10731 10734 10735 10737 10737 10737 10738 10738 10738 10738 10739 10740 10741 10741 10742 10742 10741 10742 10742 10742 10742 10741 10741 10740 10738 10737 10736
10673 10674 10673 10673 10676 10678 10678 10678 10678 10678 10679 10681 10682 10683 10683 10682 10682 10683 10685 10684 10682 10682 10683 10682 10682 10682 10681 10681 10681 10681 10681 10682 10683 10684 10684 10685 10686 10687 10688 10689 10691 10692 10693 10695 10697 10700 10701 10701 10702 10703 10704 10706 10708 10710 10711 10712 10715 10717 10719 10719 10720 10722 10723 10725 10726 10726 10726 10726 10726 10725 10725 10725 10726 10727 10727 10727 10727 10727 10727 10726 10726 10726 10725 10724 10722 10721 10721
10668 10670 10668 10667 10669 10673 10673 10673 10674 10674 10675 10676 10678 10679 10679 10678 10677 10678 10680 10680 10678 10678 10679 10679 10679 10678 10678 10677 10677 10677 10677 10678 10678 10679 10680 10680 10681 10681 10682 10683 10684 10685 10687 10689 10691 10693 10693 10694 10695 10696 10697 10699 10701 10702 10702 10703 10704 10706 10707 10708 10709 10709 10710 10711 10712 10712 10712 10712 10712 10712 10711 10711 10712 10711 10711 10712 10712 10711 10711 10710 10709 10708 10708 10707 10707 10706 10706
10662 10664 10663 10662 10663 10666 10667 10667 10669 10670 10671 10672 10672 10673 10674 10673 10672 10672 10674 10675 10674 10674 10674 10674 10674 10674 10674 10673 10673 10673 10673 10673 10673 10674 10675 10675 10676 10676 10677 10678 10678 10679 10680 10683 10685 10685 10685 10686 10688 10689 10690 10691 10693 10693 10693 10694 10695 10695 10696 10696 10697 10697 10697 10697 10697 10698 10698 10697 10697 10698 10697 10697 10697 10696 10696 10696 10696 10695 10694 10693 10692 10690 10689 10690 10691 10692 10690
10655 10658 10659 10658 10658 10659 10660 10662 10664 10665 10667 10667 10667 10667 10668 10668 10667 10668 10669 10669 10669 10669 10669 10669 10670 10669 10669 10668 10668 10668 10668 10668 10668 10669 10670 10670 10671 10672 10672 10673 10674 10674 10675 10676 10678 10678 10678 10678 10680 10681 10681 10682 10683 10684 10684 10684 10685 10685 10685 10685 10685 10685 10685 10685 10684 10684 10684 10683 10682 10683 10683 10682 10681 10680 10680 10680 10679 10677 10677 10675 10674 10671 10670 10671 10673 10673 10672
10647 10650 10653 10654 10654 10655 10655 10655 10657 10660 10660 10659 10659 10660 10660 10660 10661 10661 10662 10663 10664 10664 10664 10664 10665 10665 10664 10664 10664 10663 10663 10663 10663 10664 10664 10665 10666 10667 10667 10668 10669 10669 10669 10671 10672 10671 10671 10671 10672 10672 10672 10673 10673 10674 10674 10674 10674 10674 10674 10674 10674 10674 10673 10672 10672 10671 10670 10669 10668 10669 10668 10667 10666 10665 10665 10663 10661 10660 10659 10658 10656 10654 10653 10652 10652 10652 10652
10641 10644 10646 10648 10650 10651 10649 10648 10651 10654 10654 10652 10652 10652 10653 10653 10654 10655 10656 10657 10657 10657 10658 10659 10659 10659 10659 10659 10659 10659 10658 10658 10658 10659 10659 10659 10660 10661 10662 10663 10664 10663 10664 10665 10666 10665 10664 10664 10664 10664 10664 10663 10664 10664 10664 10664 10663 10663 10662 10662 10662 10662 10660 10659 10659 10658 10656 10655 10655 10655 10654 10653 10651 10650 10650 10648 10645 10644 10642 10641 10639 10638 10636 10634 10633 10633 10633
10636 10638 10640 10643 10645 10646 10644 10642 10643 10645 10647 10646 10646 10645 10646 10646 10647 10647 10648 10650 10650 10651 10651 10652 10653 10653 10653 10654 10653 10653 10653 10653 10653 10653 10654 10654 10654 10655 10657 10658 10658 10657 10658 10660 10660 10659 10658 10658 10657 10657 10656 10656 10655 10655 10655 10654 10653 10652 10652 10651 10651 10650 10648 10647 10647 10646 10643 10641 10641 10641 10641 10639 10637 10636 10634 10632 10631 10629 10627 10625 10624 10622 10620 10617 10615 10615 10615
10631 10632 10635 10637 10640 10640 10639 10637 10636 10637 10639 10641 10640 10640 10640 10640 10640 10639 10640 10640 10641 10641 10643 10644 10645 10645 10646 10647 10647 10647 10647 10647 10648 10648 10648 10648 10649 10650 10652 10653 10652 10652 10653 10654 10654 10653 10652 10652 10651 10650 10650 10649 10648 10648 10647 10646 10645 10643 10642 10642 10641 10639 10637 10635 10635 10633 10631 10629 10628 10628 10627 10626 10624 10621 10618 10617 10616 10615 10613 10611 10609 10607 10605 10602 10599 10597 10596
10626 10628 10631 10633 10634 10634 10632 10631 10630 10630 10633 10635 10635 10635 10635 10635 10635 10635 10635 10635 10634 10634 10635 10636 10637 10638 10639 10640 10641 10641 10641 10641 10641 10642 10643 10643 10643 10645 10647 10647 10646 10646 10647 10648 10647 10647 10646 10645 10644 10644 10643 10643 10642 10641 10639 10638 10636 10635 10634 10633 10632 10629 10627 10625 10624 10622 10619 10617 10616 10615 10614 10613 10610 10607 10604 10603 10601 10600 10599 10596 10593 10591 10589 10587 10584 10581 10579
10621 10624 10626 10627 10627 10627 10627 10626 10624 10624 10626 10629 10630 10630 10631 10631 10631 10631 10631 10631 10630 10630 10630 10630 10630 10631 10632 10633 10634 10635 10635 10635 10635 10635 10636 10637 10637 10639 10641 10641 10640 10640 10641 10641 10641 10641 10640 10638 10637 10637 10637 10636 10635 10633 10631 10630 10628 10627 10626 10624 10623 10620 10617 10615 10613 10611 10609 10607 10605 10603 10601 10600 10597 10594 10592 10590 10587 10585 10583 10581 10578 10575 10573 10572 10568 10565 10563
10616 10618 10621 10622 10622 10622 10622 10620 10618 10617 10618 10621 10622 10623 10625 10627 10627 10626 10625 10625 10625 10624 10624 10623 10623 10624 10625 10627 10627 10628 10629 10629 10629 10629 10631 10632 10632 10633 10634 10635 10635 10635 10634 10634 10633 10634 10633 10632 10630 10630 10629 10628 10627 10626 10624 10621 10620 10618 10617 10615 10613 10610 10607 10604 10602 10600 10598 10596 10594 10592 10590 10587 10585 10582 10580 10577 10574 10570 10569 10567 10564 10561 10558 10556 10553 10550 10548
10611 10614 10616 10616 10617 10616 10616 10614 10613 10610 10609 10611 10614 10617 10619 10620 10620 10619 10618 10618 10618 10617 10617 10617 10617 10618 10619 10620 10620 10622 10623 10623 10623 10624 10626 10627 10627 10627 10628 10629 10629 10629 10628 10627 10627 10627 10626 10625 10624 10623 10622 10620 10619 10617 10615 10613 10611 10609 10607 10604 10602 10600 10597 10594 10591 10589 10587 10584 10582 10580 10578 10576 10573 10570 10567 10564 10560 10558 10556 10554 10551 10548 10544 10541 10539 10536 10533
10608 10610 10610 10610 10610 10610 10609 10608 10606 10604 10601 10602 10605 10610 10612 10613 10612 10611 10610 10610 10611 10610 10610 10610 10611 10612 10613 10614 10614 10616 10617 10617 10618 10619 10620 10621 10622 10621 10622 10623 10623 10623 10622 10621 10620 10620 10619 10618 10617 10615 10614 10612 10611 10609 10607 10604 10602 10600 10598 10594 10592 10589 10586 10583 10581 10578 10576 10574 10571 10569 10566 10564 10561 10559 10555 10551 10547 10544 10543 10541 10538 10534 10530 10527 10524 10522 10519
10603 10604 10604 10603 10603 10603 10602 10600 10600 10599 10597 10596 10596 10599 10601 10602 10601 10599 10599 10601 10603 10603 10603 10604 10604 10605 10607 10608 10608 10609 10611 10611 10612 10613 10615 10616 10616 10615 10615 10616 10616 10616 10615 10614 10613 10612 10611 10610 10608 10607 10606 10604 10602 10600 10597 10595 10593 10590 10588 10584 10581 10578 10576 10573 10570 10567 10565 10562 10559 10556 10553 10551 10549 10547 10544 10539 10534 10530 10528 10526 10524 10521 10516 10513 10509 10506 10503
10597 10597 10597 10596 10596 10596 10596 10595 10594 10594 10593 10592 10591 10591 10592 10592 10591 10588 10588 10590 10594 10595 10596 10597 10599 10600 10601 10602 10602 10603 10604 10605 10606 10607 10608 10609 10609 10609 10609 10609 10609 10609 10608 10607 10605 10604 10602 10601 10600 10598 10597 10595 10593 10590 10587 10584 10582 10580 10577 10574 10570 10567 10565 10563 10560 10557 10554 10551 10548 10545 10540 10537 10536 10534 10530 10526 10522 10518 10515 10512 10510 10507 10503 10499 10495 10491 10487
10590 10590 10591 10592 10591 10591 10591 10590 10589 10589 10589 10589 10589 10587 10585 10585 10584 10583 10583 10585 10587 10589 10591 10592 10593 10594 10595 10596 10596 10597 10598 10599 10600 10600 10602 10602 10603 10603 10602 10602 10602 10602 10601 10599 10598 10596 10594 10593 10591 10590 10588 10586 10584 10581 10578 10574 10572 10569 10567 10563 10560 10556 10553 10551 10549 10546 10542 10539 10536 10532 10527 10523 10521 10520 10516 10511 10507 10505 10502 10499 10496 10493 10490 10486 10482 10477 10473
10584 10584 10586 10587 10588 10588 10588 10588 10587 10587 10587 10587 10586 10584 10583 10582 10582 10582 10582 10583 10585 10587 10588 10588 10589 10589 10589 10589 10590 10591 10592 10593 10594 10594 10595 10596 10597 10597 10597 10596 10596 10595 10594 10593 10591 10589 10587 10585 10584 10582 10580 10577 10575 10572 10569 10565 10562 10559 10556 10554 10550 10546 10541 10538 10535 10532 10530 10527 10524 10519 10513 10509 10507 10505 10501 10496 10492 10489 10487 10484 10481 10478 10475 10472 10468 10464 10460
10577 10578 10579 10582 10583 10584 10585 10586 10586 10585 10585 10584 10584 10583 10582 10582 10582 10582 10583 10583 10583 10583 10583 10583 10582 10582 10582 10582 10583 10584 10586 10587 10588 10589 10590 10591 10591 10591 10590 10590 10589 10588 10587 10586 10584 10582 10580 10578 10576 10574 10571 10568 10566 10563 10560 10557 10553 10549 10545 10543 10540 10536 10530 10525 10521 10518 10516 10514 10510 10506 10500 10496 10493 10491 10487 10482 10478 10474 10472 10469 10466 10463 10460 10458 10455 10451 10447
10570 10571 10574 10576 10578 10579 10581 10582 10581 10581 10581 10581 10581 10581 10581 10582 10582 10582 10582 10580 10579 10578 10578 10577 10577 10576 10576 10576 10577 10579 10581 10582 10583 10584 10585 10586 10586 10585 10584 10583 10582 10581 10580 10578 10576 10574 10572 10570 10568 10565 10562 10559 10557 10553 10551 10548 10545 10540 10535 10532 10530 10526 10520 10514 10510 10506 10502 10498 10495 10491 10486 10482 10479 10476 10473 10468 10464 10460 10457 10455 10452 10449 10447 10444 10442 10439 10436